Regional Weather Roundup
Issued by NWS

Home | Current Version | Previous Version | Text Only | Print | Product List | Glossary Off
Versions: 1 2 3 4 5 6 7 8 9 10 11 12 13 14 15 16 17 18 19 20 21 22 23 24 25 26 27 28 29 30 31 32 33 34 35 36 37 38 39 40 41 42 43 44 45 46 47 48 49 50

000
ASUS43 KTOP 191059
RWRKS

WEATHER ROUNDUP FOR KANSAS
NATIONAL WEATHER SERVICE GOODLAND KS
600 AM CDT TUE SEP 19 2017

NOTE:  "FAIR" INDICATES FEW OR NO CLOUDS BELOW 12,000 FEET WITH NO
SIGNIFICANT WEATHER AND/OR OBSTRUCTIONS TO VISIBILITY.

KSZ001>006-013>018-027>032-041>047-191200-
NORTHWEST KANSAS

CITY           SKY/WX    TMP DP  RH WIND       PRES   REMARKS
GOODLAND       PTCLDY    63  63 100 S17       29.72F FOG
HAYS           CLEAR     69  63  81 S9        29.77F
HILL CITY      CLEAR     69  65  86 S8        29.75F
RUSSELL        CLEAR     68  64  87 S15       29.75F
$$

KSZ061>065-074>080-084>089-191200-
SOUTHWEST KANSAS

CITY           SKY/WX    TMP DP  RH WIND       PRES   REMARKS
DODGE CITY     CLEAR     67  62  84 S13       29.78F
ELKHART          N/A     61  62 100 S6          N/A
GARDEN CITY    CLEAR     63  61  93 SE8       29.77F
GREAT BEND     CLEAR     69  64  84 S12       29.78F
LIBERAL        CLEAR     63  61  93 S10       29.80F
$$

KSZ066>073-081>083-090>101-191200-
SOUTHEAST KANSAS

CITY           SKY/WX    TMP DP  RH WIND       PRES   REMARKS
CHANUTE        CLEAR     66  64  93 SE6       29.88S
COFFEYVILLE    CLEAR     68  64  87 CALM      29.88R
HUTCHINSON     PTCLDY    68  66  93 SE9       29.82F
MEDICINE LODGE   N/A     70  63  78 SE9       29.81F
NEWTON         PTCLDY    67  65  93 S10       29.85F
WICHITA INTL   PTCLDY    68  66  93 S12       29.84S
WICHITA JABRA  CLEAR     67  67 100 SE7       29.85S
WINFIELD       CLOUDY    69  67  93 S8        29.88R
$$

KSZ007>012-019>026-033>040-048>060-102>105-191200-
NORTHEAST KANSAS

CITY           SKY/WX    TMP DP  RH WIND       PRES   REMARKS
CONCORDIA      CLEAR     68  67  96 S8        29.80S
EMPORIA        MOCLDY    67  64  90 S8        29.85F
LAWRENCE       PTCLDY    67  67 100 E7        29.86S
MANHATTAN      CLEAR     68  66  93 SW5       29.82S
OLATHE IND     MOCLDY    67  65  93 SE5       29.88S
OLATHE EXE     PTCLDY    66  66 100 NE5       29.89R
SALINA         CLEAR     70  66  87 S12       29.80F
TOPEKA BILLARD CLEAR     66  65  96 CALM      29.84S
TOPEKA FORBES  CLEAR     68  66  93 SE3       29.85S
$$



USA.gov is the U.S. government's official web portal to all federal, state and local government web resources and services.